| time (UTC) | temp F | wind direction | speed knots | gust knots | rain 1hr in | rain 24hr in | rain mn in | humidity % | barometer mb |
| 20260510121355 | 75 | 147 | 0.0 | 0.0 | 0.00 | 0.01 | 0.00 | 100 | 1009.5 |
| 20260510120855 | 75 | 148 | 0.0 | 0.0 | 0.00 | 0.02 | 0.00 | 100 | 1009.5 |
| 20260510115854 | 75 | 148 | 0.0 | 0.0 | 0.00 | 0.02 | 0.00 | 100 | 1009.4 |
| 20260510115355 | 75 | 148 | 0.0 | 0.0 | 0.00 | 0.02 | 0.00 | 100 | 1009.5 |
| 20260510114855 | 76 | 148 | 0.0 | 0.0 | 0.00 | 0.03 | 0.00 | 100 | 1009.4 |
| 20260510114355 | 76 | 148 | 0.0 | 0.0 | 0.00 | 0.03 | 0.00 | 100 | 1009.3 |
| 20260510113854 | 76 | 148 | 0.0 | 0.0 | 0.00 | 0.04 | 0.00 | 100 | 1009.3 |
| 20260510113354 | 76 | 148 | 0.0 | 0.0 | 0.00 | 0.04 | 0.00 | 100 | 1009.4 |
| 20260510112854 | 76 | 148 | 0.0 | 0.0 | 0.00 | 0.05 | 0.00 | 100 | 1009.3 |
| 20260510112355 | 76 | 148 | 0.0 | 0.0 | 0.00 | 0.05 | 0.00 | 100 | 1009.4 |
| 20260510111355 | 76 | 148 | 0.0 | 0.0 | 0.00 | 0.07 | 0.00 | 100 | 1009.2 |
| 20260510110354 | 76 | 145 | 0.0 | 0.0 | 0.00 | 0.07 | 0.00 | 100 | 1009.3 |
| 20260510105854 | 76 | 147 | 0.0 | 0.9 | 0.00 | 0.08 | 0.00 | 100 | 1009.2 |
| 20260510105355 | 76 | 147 | 0.0 | 0.9 | 0.00 | 0.08 | 0.00 | 100 | 1009.2 |
| 20260510104855 | 76 | 147 | 0.0 | 0.0 | 0.00 | 0.09 | 0.00 | 100 | 1009.2 |
| 20260510104355 | 76 | 147 | 0.0 | 0.0 | 0.00 | 0.09 | 0.00 | 100 | 1009.2 |
| 20260510103854 | 76 | 147 | 0.0 | 0.0 | 0.00 | 0.09 | 0.00 | 100 | 1009.1 |
| 20260510103354 | 77 | 147 | 0.0 | 0.0 | 0.00 | 0.09 | 0.00 | 100 | 1009.1 |
| 20260510102854 | 77 | 144 | 0.0 | 0.0 | 0.00 | 0.09 | 0.00 | 100 | 1009.1 |
| 20260510102354 | 77 | 143 | 0.0 | 0.0 | 0.00 | 0.09 | 0.00 | 100 | 1009.0 |
| 20260510101855 | 77 | 142 | 0.0 | 0.0 | 0.00 | 0.09 | 0.00 | 100 | 1009.0 |
| 20260510101355 | 77 | 142 | 0.0 | 0.0 | 0.00 | 0.09 | 0.00 | 100 | 1008.9 |
| 20260510100855 | 77 | 141 | 0.0 | 0.0 | 0.00 | 0.09 | 0.00 | 100 | 1009.1 |
| 20260510095854 | 77 | 140 | 0.0 | 0.0 | 0.00 | 0.09 | 0.00 | 100 | 1009.1 |
| 20260510094353 | 77 | 140 | 0.0 | 0.0 | 0.00 | 0.09 | 0.00 | 100 | 1009.2 |
| 20260510093853 | 77 | 140 | 0.0 | 0.0 | 0.00 | 0.09 | 0.00 | 100 | 1009.1 |
| 20260510093353 | 76 | 140 | 0.0 | 0.0 | 0.00 | 0.09 | 0.00 | 100 | 1009.1 |
| 20260510092352 | 76 | 140 | 0.0 | 0.0 | 0.00 | 0.09 | 0.00 | 100 | 1009.1 |
| 20260510091852 | 76 | 140 | 0.0 | 0.0 | 0.00 | 0.09 | 0.00 | 100 | 1009.3 |
| 20260510091353 | 76 | 140 | 0.0 | 0.0 | 0.00 | 0.09 | 0.00 | 100 | 1009.2 |
| 20260510090854 | 76 | 140 | 0.0 | 0.0 | 0.00 | 0.09 | 0.00 | 100 | 1009.1 |
| 20260510090353 | 77 | 140 | 0.0 | 0.0 | 0.00 | 0.09 | 0.00 | 100 | 1009.2 |
| 20260510085852 | 77 | 140 | 0.0 | 0.0 | 0.00 | 0.09 | 0.00 | 100 | 1009.3 |
| 20260510085350 | 77 | 140 | 0.0 | 0.0 | 0.00 | 0.09 | 0.00 | 100 | 1009.2 |
| 20260510084850 | 77 | 141 | 0.0 | 0.0 | 0.00 | 0.09 | 0.00 | 100 | 1009.1 |
| 20260510083851 | 78 | 142 | 0.0 | 0.0 | 0.00 | 0.09 | 0.00 | 100 | 1009.0 |
| 20260510083351 | 77 | 142 | 0.0 | 1.7 | 0.00 | 0.09 | 0.00 | 100 | 1008.9 |
| 20260510082850 | 77 | 143 | 1.7 | 5.2 | 0.00 | 0.09 | 0.00 | 100 | 1009.0 |
| 20260510082348 | 77 | 140 | 2.6 | 5.2 | 0.00 | 0.09 | 0.00 | 100 | 1009.1 |
| 20260510081848 | 77 | 134 | 1.7 | 5.2 | 0.00 | 0.09 | 0.00 | 100 | 1009.2 |
| 20260510080849 | 77 | 138 | 3.5 | 6.1 | 0.00 | 0.09 | 0.00 | 100 | 1009.3 |
| 20260510075847 | 77 | 128 | 4.3 | 6.1 | 0.00 | 0.09 | 0.00 | 100 | 1009.3 |
| 20260510075346 | 77 | 114 | 4.3 | 6.1 | 0.00 | 0.09 | 0.00 | 100 | 1009.3 |
| 20260510074847 | 77 | 117 | 4.3 | 6.1 | 0.00 | 0.09 | 0.00 | 100 | 1009.4 |
| 20260510074347 | 77 | 121 | 4.3 | 5.2 | 0.00 | 0.09 | 0.00 | 100 | 1009.3 |
| 20260510073847 | 77 | 117 | 4.3 | 5.2 | 0.00 | 0.09 | 0.00 | 100 | 1009.3 |
| 20260510072847 | 77 | 101 | 2.6 | 5.2 | 0.00 | 0.09 | 0.00 | 100 | 1009.3 |
| 20260510072347 | 77 | 101 | 2.6 | 5.2 | 0.00 | 0.09 | 0.00 | 100 | 1009.3 |
| 20260510071846 | 77 | 100 | 3.5 | 5.2 | 0.00 | 0.09 | 0.00 | 100 | 1009.4 |
| 20260510070845 | 77 | 103 | 4.3 | 6.1 | 0.00 | 0.09 | 0.00 | 100 | 1009.4 |
| 20260510070345 | 77 | 111 | 4.3 | 6.1 | 0.00 | 0.09 | 0.00 | 100 | 1009.4 |
| 20260510065844 | 77 | 111 | 4.3 | 6.1 | 0.00 | 0.09 | 0.00 | 100 | 1009.5 |
| 20260510064845 | 77 | 101 | 4.3 | 6.1 | 0.00 | 0.09 | 0.00 | 100 | 1009.6 |
| 20260510064345 | 77 | 95 | 4.3 | 7.0 | 0.00 | 0.09 | 0.00 | 100 | 1009.5 |
| 20260510063845 | 77 | 80 | 4.3 | 7.0 | 0.00 | 0.09 | 0.00 | 100 | 1009.6 |
| 20260510063346 | 77 | 96 | 5.2 | 7.0 | 0.00 | 0.09 | 0.00 | 100 | 1009.6 |
| 20260510062342 | 77 | 101 | 4.3 | 7.0 | 0.00 | 0.09 | 0.00 | 100 | 1009.8 |
| 20260510061843 | 77 | 111 | 5.2 | 7.0 | 0.00 | 0.09 | 0.00 | 100 | 1009.7 |
| 20260510061343 | 77 | 103 | 5.2 | 7.0 | 0.00 | 0.09 | 0.00 | 100 | 1009.8 |
| 20260510060843 | 77 | 100 | 5.2 | 6.1 | 0.00 | 0.09 | 0.00 | 100 | 1009.9 |
| 20260510060343 | 77 | 108 | 4.3 | 6.1 | 0.00 | 0.09 | 0.00 | 100 | 1009.8 |
| 20260510055343 | 77 | 124 | 4.3 | 7.0 | 0.00 | 0.09 | 0.00 | 100 | 1009.7 |
| 20260510054843 | 77 | 133 | 4.3 | 7.0 | 0.00 | 0.09 | 0.00 | 100 | 1009.7 |
| 20260510054343 | 77 | 115 | 4.3 | 6.1 | 0.00 | 0.09 | 0.00 | 100 | 1009.7 |
| 20260510053341 | 77 | 114 | 3.5 | 4.3 | 0.00 | 0.09 | 0.00 | 100 | 1009.7 |
| 20260510052841 | 78 | 114 | 4.3 | 6.1 | 0.00 | 0.09 | 0.00 | 100 | 1009.6 |
| 20260510052341 | 78 | 117 | 4.3 | 6.1 | 0.00 | 0.09 | 0.00 | 100 | 1009.6 |
| 20260510051841 | 78 | 115 | 4.3 | 5.2 | 0.00 | 0.09 | 0.00 | 100 | 1009.4 |
| 20260510051341 | 78 | 111 | 4.3 | 6.1 | 0.00 | 0.09 | 0.00 | 100 | 1009.4 |
| 20260510050341 | 78 | 113 | 5.2 | 7.0 | 0.00 | 0.09 | 0.00 | 100 | 1009.4 |
| 20260510044340 | 79 | 144 | 4.3 | 6.1 | 0.00 | 0.09 | 0.09 | 100 | 1008.9 |
| 20260510043839 | 79 | 146 | 4.3 | 7.8 | 0.00 | 0.09 | 0.09 | 100 | 1008.9 |
| 20260510043339 | 79 | 140 | 4.3 | 7.8 | 0.00 | 0.09 | 0.09 | 100 | 1008.9 |
| 20260510042839 | 79 | 149 | 4.3 | 7.0 | 0.00 | 0.09 | 0.09 | 100 | 1008.9 |
| 20260510041840 | 79 | 125 | 5.2 | 7.0 | 0.00 | 0.09 | 0.09 | 100 | 1009.1 |
| 20260510040340 | 79 | 119 | 5.2 | 7.0 | 0.00 | 0.09 | 0.09 | 100 | 1009.2 |
| 20260510035840 | 79 | 121 | 5.2 | 7.0 | 0.00 | 0.09 | 0.09 | 100 | 1009.3 |
| 20260510035337 | 79 | 117 | 5.2 | 7.0 | 0.00 | 0.09 | 0.09 | 100 | 1009.1 |
| 20260510034837 | 79 | 110 | 5.2 | 6.1 | 0.00 | 0.09 | 0.09 | 100 | 1009.2 |
| 20260510034337 | 79 | 105 | 5.2 | 7.0 | 0.00 | 0.09 | 0.09 | 100 | 1009.2 |
| 20260510033837 | 79 | 116 | 5.2 | 7.0 | 0.00 | 0.09 | 0.09 | 100 | 1009.2 |
| 20260510033337 | 79 | 121 | 5.2 | 7.8 | 0.00 | 0.09 | 0.09 | 100 | 1009.0 |
| 20260510032837 | 80 | 109 | 4.3 | 7.8 | 0.00 | 0.09 | 0.09 | 100 | 1009.0 |
| 20260510032337 | 80 | 90 | 5.2 | 7.0 | 0.00 | 0.09 | 0.09 | 100 | 1009.0 |
| 20260510031837 | 80 | 106 | 5.2 | 7.0 | 0.00 | 0.09 | 0.09 | 100 | 1008.8 |
| 20260510030837 | 80 | 108 | 5.2 | 7.0 | 0.00 | 0.09 | 0.09 | 100 | 1008.7 |
| 20260510030337 | 80 | 120 | 5.2 | 7.8 | 0.00 | 0.09 | 0.09 | 100 | 1008.5 |
| 20260510025837 | 80 | 127 | 5.2 | 9.6 | 0.00 | 0.09 | 0.09 | 100 | 1008.3 |
| 20260510025338 | 80 | 148 | 5.2 | 9.6 | 0.00 | 0.09 | 0.09 | 100 | 1008.1 |
| 20260510024837 | 80 | 122 | 5.2 | 8.7 | 0.00 | 0.09 | 0.09 | 100 | 1007.9 |
| 20260510024337 | 80 | 138 | 6.1 | 9.6 | 0.00 | 0.09 | 0.09 | 100 | 1007.7 |
| 20260510023837 | 80 | 142 | 7.0 | 10.4 | 0.00 | 0.09 | 0.09 | 100 | 1007.5 |
| 20260510023336 | 80 | 165 | 6.1 | 10.4 | 0.00 | 0.09 | 0.09 | 100 | 1007.4 |
| 20260510022835 | 80 | 140 | 5.2 | 9.6 | 0.00 | 0.09 | 0.09 | 100 | 1007.3 |
| 20260510022331 | 80 | 144 | 5.2 | 8.7 | 0.00 | 0.09 | 0.09 | 100 | 1007.3 |
| 20260510021831 | 80 | 140 | 5.2 | 8.7 | 0.00 | 0.09 | 0.09 | 100 | 1007.4 |
| 20260510021332 | 80 | 184 | 5.2 | 7.8 | 0.00 | 0.09 | 0.09 | 100 | 1007.5 |
| 20260510020831 | 80 | 147 | 4.3 | 7.0 | 0.00 | 0.09 | 0.09 | 100 | 1007.6 |
| 20260510020332 | 80 | 145 | 4.3 | 7.0 | 0.00 | 0.09 | 0.09 | 100 | 1007.6 |
| 20260510015332 | 80 | 150 | 4.3 | 7.0 | 0.00 | 0.09 | 0.09 | 100 | 1007.6 |
| 20260510014331 | 81 | 147 | 4.3 | 7.0 | 0.00 | 0.09 | 0.09 | 100 | 1007.4 |
| 20260510013831 | 81 | 132 | 4.3 | 6.1 | 0.00 | 0.09 | 0.09 | 100 | 1007.4 |
| 20260510012831 | 82 | 122 | 3.5 | 5.2 | 0.00 | 0.09 | 0.09 | 100 | 1007.5 |
| 20260510012332 | 82 | 121 | 3.5 | 5.2 | 0.00 | 0.09 | 0.09 | 100 | 1007.5 |
| 20260510011831 | 83 | 120 | 2.6 | 4.3 | 0.00 | 0.09 | 0.09 | 100 | 1007.6 |
| 20260510011332 | 83 | 134 | 1.7 | 4.3 | 0.00 | 0.09 | 0.09 | 100 | 1007.5 |
| 20260510010831 | 83 | 134 | 2.6 | 5.2 | 0.00 | 0.09 | 0.09 | 100 | 1007.6 |
| 20260510010331 | 83 | 134 | 3.5 | 5.2 | 0.00 | 0.09 | 0.09 | 100 | 1007.5 |
| 20260510005831 | 84 | 132 | 4.3 | 7.0 | 0.00 | 0.09 | 0.09 | 100 | 1007.5 |
| 20260510004831 | 84 | 119 | 5.2 | 9.6 | 0.00 | 0.09 | 0.09 | 100 | 1007.3 |
| 20260510003832 | 85 | 127 | 6.1 | 8.7 | 0.00 | 0.09 | 0.09 | 100 | 1007.3 |
| 20260510003332 | 85 | 128 | 6.1 | 9.6 | 0.00 | 0.09 | 0.09 | 100 | 1007.1 |
| 20260510002831 | 85 | 138 | 6.1 | 11.3 | 0.00 | 0.09 | 0.09 | 100 | 1007.1 |
| 20260510002331 | 85 | 137 | 7.0 | 11.3 | 0.00 | 0.09 | 0.09 | 100 | 1007.0 |
| 20260510001832 | 85 | 119 | 6.1 | 10.4 | 0.00 | 0.09 | 0.09 | 100 | 1006.9 |
| 20260510001332 | 86 | 144 | 7.0 | 11.3 | 0.00 | 0.09 | 0.09 | 100 | 1007.0 |
| 20260510000329 | 86 | 119 | 7.8 | 12.2 | 0.00 | 0.09 | 0.09 | 100 | 1006.9 |
| 20260509233827 | 87 | 130 | 7.8 | 13.0 | 0.00 | 0.09 | 0.09 | 100 | 1007.0 |
| 20260509233326 | 87 | 116 | 8.7 | 12.2 | 0.00 | 0.09 | 0.09 | 100 | 1007.0 |
| 20260509232826 | 87 | 140 | 8.7 | 13.0 | 0.00 | 0.09 | 0.09 | 100 | 1007.0 |
| 20260509232325 | 87 | 125 | 8.7 | 13.0 | 0.00 | 0.09 | 0.09 | 100 | 1007.0 |
| 20260509231825 | 87 | 121 | 8.7 | 13.0 | 0.00 | 0.09 | 0.09 | 100 | 1007.1 |
| 20260509231326 | 87 | 114 | 8.7 | 13.0 | 0.00 | 0.09 | 0.09 | 100 | 1007.2 |
| 20260509230826 | 87 | 153 | 8.7 | 13.0 | 0.00 | 0.09 | 0.09 | 100 | 1007.1 |
| 20260509230325 | 87 | 126 | 8.7 | 12.2 | 0.00 | 0.09 | 0.09 | 100 | 1007.0 |
| 20260509225825 | 87 | 123 | 9.6 | 13.9 | 0.00 | 0.09 | 0.09 | 100 | 1007.2 |
| 20260509225326 | 88 | 117 | 10.4 | 16.5 | 0.00 | 0.09 | 0.09 | 100 | 1007.2 |
| 20260509224826 | 88 | 129 | 10.4 | 16.5 | 0.00 | 0.09 | 0.09 | 100 | 1007.0 |
| 20260509223824 | 88 | 119 | 8.7 | 12.2 | 0.00 | 0.09 | 0.09 | 100 | 1006.9 |
| 20260509223324 | 88 | 120 | 8.7 | 12.2 | 0.00 | 0.09 | 0.09 | 100 | 1007.0 |
| 20260509222824 | 89 | 115 | 8.7 | 12.2 | 0.00 | 0.09 | 0.09 | 100 | 1007.0 |
| 20260509222324 | 89 | 127 | 8.7 | 12.2 | 0.00 | 0.09 | 0.09 | 100 | 1006.9 |
| 20260509221823 | 90 | 121 | 7.8 | 11.3 | 0.00 | 0.09 | 0.09 | 100 | 1006.9 |
| 20260509221323 | 89 | 126 | 7.0 | 10.4 | 0.00 | 0.09 | 0.09 | 100 | 1007.0 |
| 20260509220824 | 90 | 119 | 7.0 | 10.4 | 0.00 | 0.09 | 0.09 | 100 | 1007.0 |
| 20260509220325 | 89 | 115 | 7.0 | 10.4 | 0.00 | 0.09 | 0.09 | 100 | 1006.9 |
| 20260509215824 | 89 | 145 | 7.8 | 12.2 | 0.00 | 0.09 | 0.09 | 100 | 1006.9 |
| 20260509215324 | 89 | 106 | 8.7 | 12.2 | 0.00 | 0.09 | 0.09 | 100 | 1007.2 |
| 20260509214823 | 89 | 125 | 7.8 | 11.3 | 0.00 | 0.09 | 0.09 | 100 | 1007.0 |
| 20260509214323 | 90 | 119 | 7.8 | 11.3 | 0.00 | 0.09 | 0.09 | 100 | 1007.0 |
| 20260509213824 | 90 | 101 | 7.0 | 11.3 | 0.00 | 0.09 | 0.09 | 100 | 1007.1 |
| 20260509212823 | 90 | 100 | 4.3 | 8.7 | 0.00 | 0.09 | 0.09 | 100 | 1007.0 |
| 20260509212323 | 90 | 115 | 6.1 | 8.7 | 0.00 | 0.09 | 0.09 | 100 | 1007.1 |
| 20260509211824 | 90 | 122 | 6.1 | 8.7 | 0.00 | 0.09 | 0.09 | 100 | 1007.1 |
| 20260509211324 | 90 | 110 | 6.1 | 9.6 | 0.00 | 0.09 | 0.09 | 100 | 1007.1 |
| 20260509210824 | 90 | 110 | 7.0 | 10.4 | 0.00 | 0.09 | 0.09 | 100 | 1007.1 |
| 20260509210323 | 90 | 112 | 7.8 | 12.2 | 0.00 | 0.09 | 0.09 | 100 | 1007.0 |
| 20260509205824 | 91 | 126 | 7.0 | 12.2 | 0.00 | 0.09 | 0.09 | 100 | 1006.9 |
| 20260509205322 | 91 | 132 | 5.2 | 9.6 | 0.00 | 0.09 | 0.09 | 100 | 1006.9 |
| 20260509204822 | 91 | 101 | 5.2 | 10.4 | 0.00 | 0.09 | 0.09 | 100 | 1007.0 |
| 20260509204321 | 91 | 121 | 4.3 | 10.4 | 0.00 | 0.09 | 0.09 | 100 | 1006.9 |
| 20260509203820 | 91 | 75 | 4.3 | 7.0 | 0.00 | 0.09 | 0.09 | 100 | 1007.0 |
| 20260509203320 | 91 | 215 | 3.5 | 12.2 | 0.00 | 0.09 | 0.09 | 100 | 1007.0 |
| 20260509202820 | 91 | 124 | 1.7 | 12.2 | 0.00 | 0.09 | 0.09 | 100 | 1007.1 |
| 20260509201817 | 90 | 141 | 1.7 | 5.2 | 0.00 | 0.09 | 0.09 | 100 | 1007.4 |
| 20260509201318 | 90 | 67 | 3.5 | 8.7 | 0.00 | 0.09 | 0.09 | 100 | 1007.3 |
| 20260509195819 | 90 | 73 | 3.5 | 7.8 | 0.00 | 0.09 | 0.09 | 100 | 1007.4 |
| 20260509194818 | 90 | 343 | 4.3 | 7.8 | 0.00 | 0.09 | 0.09 | 100 | 1007.5 |
| 20260509194318 | 89 | 13 | 4.3 | 7.8 | 0.00 | 0.09 | 0.09 | 100 | 1007.5 |
| 20260509192316 | 89 | 292 | 4.3 | 8.7 | 0.00 | 0.09 | 0.09 | 100 | 1007.6 |
| 20260509191816 | 89 | 296 | 3.5 | 7.8 | 0.00 | 0.09 | 0.09 | 100 | 1007.7 |
| 20260509190816 | 89 | 11 | 6.1 | 9.6 | 0.00 | 0.09 | 0.09 | 100 | 1007.9 |
| 20260509190316 | 89 | 338 | 6.1 | 10.4 | 0.00 | 0.09 | 0.09 | 100 | 1007.8 |
| 20260509185816 | 88 | 304 | 4.3 | 10.4 | 0.00 | 0.09 | 0.09 | 100 | 1007.7 |
| 20260509185315 | 88 | 355 | 4.3 | 7.8 | 0.00 | 0.09 | 0.09 | 100 | 1007.8 |
| 20260509184815 | 88 | 319 | 5.2 | 9.6 | 0.00 | 0.09 | 0.09 | 100 | 1007.8 |
| 20260509184314 | 87 | 292 | 5.2 | 9.6 | 0.00 | 0.09 | 0.09 | 100 | 1007.8 |
| 20260509183814 | 87 | 277 | 6.1 | 8.7 | 0.00 | 0.09 | 0.09 | 100 | 1007.9 |
| 20260509183314 | 88 | 265 | 7.0 | 11.3 | 0.00 | 0.09 | 0.09 | 100 | 1007.9 |
| 20260509182314 | 88 | 313 | 5.2 | 10.4 | 0.00 | 0.09 | 0.09 | 100 | 1008.1 |
| 20260509181814 | 88 | 271 | 4.3 | 10.4 | 0.00 | 0.09 | 0.09 | 100 | 1008.1 |
| 20260509181313 | 88 | 325 | 4.3 | 8.7 | 0.00 | 0.09 | 0.09 | 100 | 1008.1 |
| 20260509180814 | 88 | 320 | 4.3 | 8.7 | 0.00 | 0.09 | 0.09 | 100 | 1008.1 |
| 20260509180314 | 88 | 321 | 3.5 | 7.8 | 0.00 | 0.09 | 0.09 | 100 | 1008.2 |
| 20260509175814 | 88 | 330 | 1.7 | 7.8 | 0.00 | 0.09 | 0.09 | 100 | 1008.2 |
| 20260509175312 | 87 | 346 | 1.7 | 5.2 | 0.00 | 0.09 | 0.09 | 100 | 1008.3 |
| 20260509173813 | 86 | 169 | 1.7 | 3.5 | 0.00 | 0.09 | 0.09 | 100 | 1008.4 |
| 20260509173312 | 85 | 144 | 0.9 | 3.5 | 0.00 | 0.09 | 0.09 | 100 | 1008.5 |
| 20260509172812 | 85 | 153 | 0.9 | 3.5 | 0.00 | 0.09 | 0.09 | 100 | 1008.4 |
| 20260509172312 | 84 | 153 | 2.6 | 6.1 | 0.00 | 0.09 | 0.09 | 100 | 1008.4 |
| 20260509171812 | 84 | 149 | 3.5 | 6.1 | 0.00 | 0.09 | 0.09 | 100 | 1008.3 |
| 20260509171312 | 83 | 126 | 4.3 | 7.8 | 0.00 | 0.09 | 0.09 | 100 | 1008.3 |
| 20260509170812 | 83 | 121 | 3.5 | 7.8 | 0.00 | 0.09 | 0.09 | 100 | 1008.2 |
| 20260509170310 | 83 | 149 | 2.6 | 5.2 | 0.00 | 0.09 | 0.09 | 100 | 1008.4 |
| 20260509165810 | 82 | 88 | 3.5 | 7.0 | 0.00 | 0.09 | 0.09 | 100 | 1008.4 |
| 20260509165310 | 82 | 117 | 3.5 | 7.0 | 0.00 | 0.09 | 0.09 | 100 | 1008.4 |
| 20260509164310 | 81 | 179 | 2.6 | 5.2 | 0.00 | 0.09 | 0.09 | 100 | 1008.4 |
| 20260509163810 | 80 | 158 | 2.6 | 5.2 | 0.00 | 0.09 | 0.09 | 100 | 1008.4 |
| 20260509163310 | 80 | 123 | 2.6 | 6.1 | 0.00 | 0.09 | 0.09 | 100 | 1008.4 |
| 20260509162810 | 80 | 126 | 1.7 | 6.1 | 0.00 | 0.09 | 0.09 | 100 | 1008.3 |
| 20260509162310 | 79 | 142 | 0.9 | 4.3 | 0.00 | 0.09 | 0.09 | 100 | 1008.3 |
| 20260509161810 | 79 | 140 | 0.0 | 4.3 | 0.00 | 0.09 | 0.09 | 100 | 1008.4 |
| 20260509161307 | 78 | 109 | 0.0 | 3.5 | 0.00 | 0.09 | 0.09 | 100 | 1008.4 |
| 20260509160808 | 78 | 109 | 0.0 | 3.5 | 0.00 | 0.09 | 0.09 | 100 | 1008.3 |
| 20260509160308 | 78 | 328 | 0.9 | 4.3 | 0.00 | 0.09 | 0.09 | 100 | 1008.4 |
| 20260509155808 | 78 | 329 | 0.9 | 4.3 | 0.00 | 0.09 | 0.09 | 100 | 1008.4 |
| 20260509155308 | 78 | 330 | 1.7 | 4.3 | 0.00 | 0.09 | 0.09 | 100 | 1008.5 |
| 20260509154808 | 78 | 330 | 2.6 | 5.2 | 0.00 | 0.09 | 0.09 | 100 | 1008.4 |
| 20260509154308 | 78 | 331 | 3.5 | 6.1 | 0.00 | 0.09 | 0.09 | 100 | 1008.4 |
| 20260509153810 | 78 | 339 | 4.3 | 7.0 | 0.00 | 0.09 | 0.09 | 100 | 1008.1 |
| 20260509153309 | 77 | 329 | 5.2 | 7.8 | 0.00 | 0.09 | 0.09 | 100 | 1008.2 |
| 20260509152809 | 77 | 5 | 5.2 | 7.8 | 0.00 | 0.09 | 0.09 | 100 | 1008.4 |
| 20260509152308 | 77 | 28 | 4.3 | 6.1 | 0.00 | 0.09 | 0.09 | 100 | 1008.5 |
| 20260509151806 | 77 | 19 | 4.3 | 6.1 | 0.00 | 0.09 | 0.09 | 100 | 1008.5 |
| 20260509151306 | 76 | 22 | 3.5 | 6.1 | 0.00 | 0.09 | 0.09 | 100 | 1008.6 |
| 20260509150806 | 76 | 5 | 4.3 | 6.1 | 0.00 | 0.09 | 0.09 | 100 | 1008.6 |
| 20260509150306 | 76 | 5 | 4.3 | 6.1 | 0.00 | 0.09 | 0.09 | 100 | 1008.5 |
| 20260509145806 | 76 | 19 | 1.7 | 5.2 | 0.00 | 0.09 | 0.09 | 100 | 1008.5 |
| 20260509145306 | 76 | 334 | 2.6 | 8.7 | 0.00 | 0.09 | 0.09 | 100 | 1008.6 |
| 20260509144806 | 75 | 332 | 4.3 | 8.7 | 0.00 | 0.09 | 0.09 | 100 | 1008.5 |
| 20260509144306 | 75 | 304 | 2.6 | 7.0 | 0.00 | 0.09 | 0.09 | 100 | 1008.6 |
| 20260509143304 | 75 | 297 | 5.2 | 11.3 | 0.00 | 0.09 | 0.09 | 100 | 1008.6 |
| 20260509142307 | 75 | 306 | 5.2 | 9.6 | 0.00 | 0.09 | 0.09 | 100 | 1008.6 |
| 20260509141804 | 75 | 256 | 5.2 | 9.6 | 0.00 | 0.09 | 0.09 | 100 | 1008.6 |
| 20260509141304 | 75 | 190 | 4.3 | 9.6 | 0.00 | 0.09 | 0.09 | 100 | 1008.5 |
| 20260509140805 | 75 | 144 | 5.2 | 9.6 | 0.00 | 0.09 | 0.09 | 100 | 1007.5 |
| 20260509140304 | 75 | 162 | 6.1 | 10.4 | 0.00 | 0.09 | 0.09 | 100 | 1007.4 |
| 20260509135804 | 75 | 179 | 6.1 | 10.4 | 0.00 | 0.09 | 0.09 | 100 | 1007.6 |
| 20260509135306 | 75 | 170 | 6.1 | 11.3 | 0.00 | 0.09 | 0.09 | 100 | 1007.6 |
| 20260509134804 | 75 | 133 | 7.0 | 12.2 | 0.00 | 0.09 | 0.09 | 100 | 1007.4 |
| 20260509133802 | 76 | 167 | 7.8 | 18.2 | 0.00 | 0.09 | 0.09 | 100 | 1007.5 |
| 20260509132802 | 76 | 136 | 11.3 | 20.9 | 0.01 | 0.09 | 0.09 | 100 | 1007.2 |
| 20260509132306 | 77 | 163 | 11.3 | 20.9 | 0.01 | 0.09 | 0.09 | 100 | 1007.0 |
| 20260509131802 | 78 | 129 | 11.3 | 20.0 | 0.01 | 0.09 | 0.09 | 100 | 1006.7 |
| 20260509131302 | 78 | 136 | 12.2 | 20.0 | 0.01 | 0.09 | 0.09 | 100 | 1006.5 |
| 20260509130802 | 78 | 164 | 13.9 | 20.9 | 0.02 | 0.09 | 0.09 | 100 | 1006.4 |
| 20260509130302 | 78 | 130 | 12.2 | 20.9 | 0.02 | 0.09 | 0.09 | 100 | 1006.0 |
| 20260509125802 | 78 | 95 | 7.8 | 16.5 | 0.02 | 0.09 | 0.09 | 100 | 1006.8 |
| 20260509125300 | 78 | 140 | 7.0 | 12.2 | 0.02 | 0.09 | 0.09 | 100 | 1008.2 |
| 20260509124800 | 78 | 146 | 7.8 | 12.2 | 0.03 | 0.09 | 0.09 | 100 | 1008.3 |
| 20260509124300 | 78 | 136 | 8.7 | 13.0 | 0.03 | 0.09 | 0.09 | 100 | 1008.1 |
| 20260509123800 | 78 | 123 | 7.8 | 13.0 | 0.04 | 0.09 | 0.09 | 100 | 1008.1 |
| 20260509123302 | 78 | 120 | 6.1 | 9.6 | 0.04 | 0.09 | 0.09 | 100 | 1008.2 |
| 20260509122800 | 78 | 114 | 6.1 | 8.7 | 0.04 | 0.08 | 0.08 | 100 | 1008.5 |
| 20260509122258 | 78 | 121 | 6.1 | 9.6 | 0.05 | 0.08 | 0.08 | 100 | 1008.9 |